FENGYUN 1C DEB, 30345

Orbit data source: Space-Track

FENGYUN 1C DEB, 30345 is space debris in SSO originally from a launch on Mon, 10 May 1999 UTC launched from the Taiyaun Space Center, China (TSC). Fengyun 1C debris stems from the Chinese weather satellite Fengyun-1C, which was intentionally destroyed by a Chinese anti-satellite missile in 2007. This event dramatically increased the amount of space debris, with thousands of trackable fragments posing hazards to satellites and human spaceflight. The Fengyun 1C debris cloud has become a focal point in discussions about space sustainability and the need for international regulations to prevent the creation of new debris.

Loading next visibility...
Identifier
30345, 1999-025ABG
Orbit
SSO
Last TLE update
14 hours ago
Origin
Manufacturer
Unknown
Mission
Spacecraft
Bus & Motor
Unknown
Mass
Unknown
Launch date (UTC)
1999-05-10 (26 years ago)
Launch vehicle
Unknown
Launch site
Taiyaun Space Center, China (TSC)
Object type
Payload
Rocket body
Debris
Shape & HBR
Unknown
Radar Cross Section
Small (<0.1 m²)

Expand to show TLE details & history

TLE from 14 hours ago
0 FENGYUN 1C DEB
1 30345U 99025ABG 25186.60168679  .00004151  00000-0  13478-2 0  9991
2 30345  98.9297 239.1659 0016301   8.2822 351.8630 14.39353986954688
Epoch: 2025-07-05T14:26Z
TLE epoch observation values (Epoch: 2025-07-05T14:26:25.738Z)
Latitude
-0.00009°
Longitude
98.72129°
Altitude
752.046 km
Speed
7.485 km/s
True Right ascension
15h 56m 39s
True Declination
0° 00' 00"
Sunlit
Object was in full shadow at epoch
Visualization orbit readout
Latitude
28.09124°
Longitude
-75.88416°
Altitude
773.613 km
Speed
7.465 km/s
Apparent Right ascension
04h 21m 51s
Apparent Declination
-3° 40' 50"
Sunlit
Object is in daylight
Visualization observer readout
Local Sidereal Time
16:26:30
Azimuth
1.963° NNE
Elevation
-53.749°
Doppler factor
1
Orbital elements
Apogee altitude
769.409 km
Perigee altitude
746.145 km
Semi-major axis
7,135.914 km
Eccentricity
0.00163
Inclination
98.9297°
RAAN
239.1659°
Arg. of periapsis
8.2822°
True anomaly
Unknown
Mean anomaly
351.863°
Eccentric anomaly
Unknown
Mean motion
3.60055 °/min
Orbital period
99.98 mins
BSTAR
0.0013478
Loading maneuver chart data...
Loading SW <> Apogee altitude chart data...
Loading historical data...
Loading historical data...
Loading historical data...
Loading historical data...
Loading historical data...
Loading historical data...
Loading historical data...

FENGYUN 1C DEB Visibility forecast

Observer location: undefined°, undefined°

Span
Click to sort rows by Start time (UTC) header in descending order
Start Az.
Max El. time (UTC)
Max El. Az.
Max El.
End time (UTC)
End Az.
9 mins2025-07-06 16:02:19.242Z25.277° NE2025-07-06 16:07:19.242Z116.066° SE37.588°2025-07-06 16:11:19.242Z174.899° S
5 mins2025-07-06 17:43:19.242Z326.345° NNW2025-07-06 17:45:19.242Z297.779° NW18.208°2025-07-06 17:48:19.242Z257.789° W
8 mins2025-07-07 03:16:19.242Z153.714° SSE2025-07-07 03:20:19.242Z47.688° ENE42.722°2025-07-07 03:24:19.242Z352.163° N
|